Regional Weather Roundup
Issued by NWS Cleveland, OH

Home | Current Version | Previous Version | Graphics & Text | Print | Product List | Glossary On
Versions: 1 2 3 4 5 6 7 8 9 10 11 12 13 14 15 16 17 18 19 20 21 22 23 24 25 26 27 28 29 30 31 32 33 34 35 36 37 38 39 40 41 42 43 44 45 46 47 48 49 50
000
ASUS41 KCLE 071902
RWRCLE
OHIO REGIONAL WEATHER ROUNDUP
NATIONAL WEATHER SERVICE CLEVELAND, OH
300 PM EDT TUE JUL 07 2015

NOTE: "FAIR" INDICATES FEW OR NO CLOUDS BELOW 12,000 FEET WITH NO
SIGNIFICANT WEATHER AND/OR OBSTRUCTIONS TO VISIBILITY.

OHZ001>008-015>018-024>027-034-035-043-044-072000-
   NORTHWEST OHIO

CITY           SKY/WX    TMP DP  RH WIND       PRES   REMARKS
DEFIANCE       LGT RAIN  75  72  90 S7        29.90R FOG
FINDLAY        LGT RAIN  72  68  87 SW12      29.92R
TOLEDO EXPRESS LGT RAIN  74  72  93 S7        29.88S
TOLEDO EXEC    LGT RAIN  75  70  84 SW10      29.90R
LIMA           RAIN      69  68  96 S3        29.93F FOG
$$

OHZ009>014-019>023-028>033-038-089-072000-
   NORTHEAST OHIO

CITY           SKY/WX    TMP DP  RH WIND       PRES   REMARKS
CLE-HOPKINS    CLOUDY    73  68  84 SW9       29.93R THUNDER
CLE-LAKEFRONT  LGT RAIN  76  67  73 S17G31    29.89R
CUY CO. ARPT   LGT RAIN  81  72  74 SW12G23   29.90
LORAIN-ELYRIA  LGT RAIN  74  69  85 NW10G20   29.92R
ASHTABULA      PTSUNNY   82  73  74 S10G21    29.90S
AKRON-CANTON   PTSUNNY   84  68  58 SW17      29.93F
WOOSTER        CLOUDY    82  68  62 SW16G25   29.93F
MANSFIELD      CLOUDY    77  72  84 SW10      29.94S
YOUNGSTOWN     CLOUDY    82  70  66 SW18G26   29.93F
$$

OHZ042-051>053-060>062-070>072-077>081-072000-
  SOUTHWEST OHIO

CITY           SKY/WX    TMP DP  RH WIND       PRES   REMARKS
CINC-COVINGTON CLOUDY    78  71  79 SW13G24   29.95F
CINC-LUNKEN    CLOUDY    80  71  74 SW12      29.94F
HAMILTON       CLOUDY    80  72  76 VRB7G21   29.94F
DAYTON         CLOUDY    81  71  71 SW16G26   29.94F
WRIGHT-PAT AFB NOT AVBL
DAYTON GENERAL CLOUDY    78  69  73 W13G23    29.94S
WILMINGTON     CLOUDY    80  69  69 SW21G35   29.94S
$$

OHZ036-037-039>041-045>050-054>059-063>069-073>076-082>088-072000-
  CENTRAL AND SOUTHEAST OHIO

CITY           SKY/WX    TMP DP  RH WIND       PRES   REMARKS
COLUMBUS       CLOUDY    82  71  69 S13G22    29.93F
OSU AIRPORT    CLOUDY    82  70  66 S20G25    29.93F
BOLTON FIELD   MOSUNNY   82  73  74 S9        29.94F
RICKENBACK AFB NOT AVBL
NEWARK         PTSUNNY   85  70  60 SW13      29.94F
MARION         CLOUDY    80  72  76 SW13      29.92F HAZE
LANCASTER      LGT RAIN  81  72  74 SW7G16    29.95F
ZANESVILLE     NOT AVBL
NEW PHILLY     PTSUNNY   83  73  72 SW8       29.95F
$$



USA.gov is the U.S. government's official web portal to all federal, state and local government web resources and services.